GW2075 Weather Reports


time (UTC)temp
F
wind
direction
speed
knots
gust
knots
rain 1hr
in
rain 24hr
in
rain mn
in
humidity
%
barometer
mb
20260510115855 55 325 0.9 1.7 0.00 0.00 0.00 97 1014.8
20260510115352 54 321 0.9 2.6 0.00 0.00 0.00 98 1014.7
20260510114848 54 316 2.6 4.3 0.00 0.00 0.00 99 1014.9
20260510114345 53 349 0.9 2.6 0.00 0.00 0.00 99 1014.8
20260510113845 53 264 0.9 1.7 0.00 0.00 0.00 99 1014.6
20260510113342 53 339 0.9 1.7 0.00 0.00 0.00 99 1014.6
20260510112839 52 347 0.0 1.7 0.00 0.00 0.00 99 1014.2
20260510112336 52 345 0.0 1.7 0.00 0.00 0.00 99 1014.2
20260510111832 52 332 0.0 0.0 0.00 0.00 0.00 99 1014.4
20260510111328 54 352 0.0 0.0 0.00 0.00 0.00 99 1014.2
20260510110828 51 359 0.0 0.0 0.00 0.00 0.00 99 1014.1
20260510110326 52 340 0.0 0.0 0.00 0.00 0.00 99 1014.1
20260510105822 51 343 0.0 0.0 0.00 0.00 0.00 99 1013.9
20260510105316 51 352 0.0 0.0 0.00 0.00 0.00 99 1013.9
20260510104813 51 315 0.9 0.9 0.00 0.00 0.00 99 1013.7
20260510104310 50 5 0.9 2.6 0.00 0.00 0.00 99 1013.6
20260510103806 49 25 0.9 0.9 0.00 0.00 0.00 99 1013.7
20260510103303 49 331 0.9 0.9 0.00 0.00 0.00 99 1013.5
20260510102758 49 343 0.0 0.0 0.00 0.00 0.00 99 1013.9
20260510102254 48 317 0.0 0.0 0.00 0.00 0.00 99 1013.7
20260510101751 48 345 0.0 0.0 0.00 0.00 0.00 99 1013.7
20260510101250 49 345 0.0 0.0 0.00 0.00 0.00 99 1013.9
20260510100745 49 324 0.0 0.0 0.00 0.00 0.00 99 1013.7
20260510100243 49 334 0.0 0.0 0.00 0.00 0.00 99 1013.8
20260510095738 49 9 0.0 0.0 0.00 0.00 0.00 99 1013.8
20260510095234 49 327 0.0 0.9 0.00 0.00 0.00 99 1013.7
20260510094733 49 12 0.9 0.9 0.00 0.00 0.00 99 1013.9
20260510094229 49 24 0.0 0.0 0.00 0.00 0.00 99 1014.1
20260510093724 49 358 0.0 0.0 0.00 0.00 0.00 99 1014.0
20260510093222 49 343 0.0 0.0 0.00 0.00 0.00 99 1013.9
20260510092718 49 348 0.0 1.7 0.00 0.00 0.00 99 1014.0
20260510092214 49 335 0.0 2.6 0.00 0.00 0.00 99 1014.2
20260510091710 48 330 0.0 1.7 0.00 0.00 0.00 99 1013.7
20260510091206 48 350 0.0 0.0 0.00 0.00 0.00 99 1013.4
20260510090703 48 348 0.0 0.0 0.00 0.00 0.00 99 1013.3
20260510090200 47 343 0.0 0.0 0.00 0.00 0.00 99 1012.9
20260510085649 47 348 0.0 0.0 0.00 0.00 0.00 99 1012.6
20260510085145 47 344 0.0 0.0 0.00 0.00 0.00 99 1012.5
20260510084641 47 345 0.0 0.0 0.00 0.00 0.00 99 1012.7
20260510084138 47 346 0.0 0.0 0.00 0.00 0.00 99 1012.6
20260510083635 47 355 0.0 0.0 0.00 0.00 0.00 99 1012.6
20260510083132 47 355 0.0 0.0 0.00 0.00 0.00 99 1012.4
20260510082628 47 356 0.0 0.0 0.00 0.00 0.00 99 1012.7
20260510082123 48 357 0.0 0.0 0.00 0.00 0.00 99 1012.4
20260510081617 48 352 0.0 0.0 0.00 0.00 0.00 99 1012.7
20260510081114 48 346 0.0 0.0 0.00 0.00 0.00 99 1012.9
20260510080608 48 344 0.0 0.0 0.00 0.00 0.00 99 1012.7
20260510080105 48 341 0.0 0.0 0.00 0.00 0.00 99 1012.6
20260510075602 48 352 0.0 0.0 0.00 0.00 0.00 99 1012.7
20260510075058 48 343 0.0 0.0 0.00 0.00 0.00 99 1012.8
20260510074556 47 338 0.0 0.0 0.00 0.00 0.00 99 1012.9
20260510074051 47 338 0.0 0.0 0.00 0.00 0.00 99 1012.7
20260510073547 47 344 0.0 0.0 0.00 0.00 0.00 99 1012.7
20260510073045 47 343 0.0 0.0 0.00 0.00 0.00 99 1012.9
20260510072541 47 333 0.0 0.0 0.00 0.00 0.00 99 1013.0
20260510072037 48 340 0.0 0.0 0.00 0.00 0.00 99 1013.0
20260510071533 48 346 0.0 0.0 0.00 0.00 0.00 99 1012.8
20260510071031 48 336 0.0 0.0 0.00 0.00 0.00 99 1012.6
20260510070528 48 305 0.9 0.9 0.00 0.00 0.00 99 1012.7
20260510070025 49 359 0.0 1.7 0.00 0.00 0.00 99 1012.7
20260510065521 49 356 0.0 0.9 0.00 0.00 0.00 99 1013.0
20260510065017 48 334 0.9 1.7 0.00 0.00 0.00 99 1013.3
20260510064514 48 131 2.6 4.3 0.00 0.00 0.00 99 1013.0
20260510064011 46 340 0.0 0.0 0.00 0.00 0.00 99 1012.3
20260510063508 47 7 0.0 0.0 0.00 0.00 0.00 99 1012.2
20260510063005 46 345 0.0 0.0 0.00 0.00 0.00 99 1012.6
20260510062501 46 346 0.0 0.0 0.00 0.00 0.00 99 1012.2
20260510061956 46 347 0.0 0.0 0.00 0.00 0.00 99 1012.5
20260510061453 46 350 0.0 0.0 0.00 0.00 0.00 99 1012.7
20260510060949 46 358 0.0 0.0 0.00 0.00 0.00 99 1012.5
20260510060446 46 356 0.0 0.0 0.00 0.00 0.00 99 1012.4
20260510055942 46 354 0.0 0.0 0.00 0.00 0.00 99 1012.4
20260510055438 46 355 0.0 0.0 0.00 0.00 0.00 99 1012.4
20260510054937 46 349 0.0 0.0 0.00 0.00 0.00 99 1012.5
20260510054431 46 350 0.0 0.0 0.00 0.00 0.00 99 1012.2
20260510053926 46 346 0.0 0.0 0.00 0.00 0.00 99 1012.3
20260510053422 46 346 0.0 0.0 0.00 0.00 0.00 99 1012.2
20260510052919 46 339 0.0 0.0 0.00 0.00 0.00 99 1012.1
20260510052415 47 346 0.0 0.0 0.00 0.00 0.00 99 1012.1
20260510051911 46 349 0.0 0.0 0.00 0.00 0.00 99 1012.2
20260510051408 46 349 0.0 0.0 0.00 0.00 0.00 99 1012.1
20260510050904 47 0 0.0 0.0 0.00 0.00 0.00 99 1012.1
20260510050401 47 356 0.0 0.9 0.00 0.00 0.00 99 1012.1
20260510045858 47 349 0.0 0.0 0.00 0.00 0.00 99 1012.2
20260510045355 47 342 0.0 0.0 0.00 0.00 0.00 99 1012.3
20260510044852 47 352 0.0 0.0 0.00 0.00 0.00 99 1012.4
20260510044349 47 349 0.0 0.0 0.00 0.00 0.00 99 1012.3
20260510043845 48 348 0.0 0.0 0.00 0.00 0.00 99 1012.3
20260510043341 48 359 0.0 0.0 0.00 0.00 0.00 99 1012.2
20260510042839 48 352 0.0 0.0 0.00 0.00 0.00 99 1012.1
20260510042335 48 347 0.0 0.0 0.00 0.00 0.00 99 1012.3
20260510041831 48 356 0.0 0.0 0.00 0.00 0.00 99 1012.1
20260510041329 48 348 0.0 0.0 0.00 0.00 0.00 99 1012.4
20260510040826 48 356 0.0 0.0 0.00 0.00 0.00 99 1012.2
20260510040322 48 352 0.0 0.0 0.00 0.00 0.00 99 1012.2
20260510035818 48 345 0.0 0.0 0.00 0.08 0.08 99 1012.3
20260510035314 49 349 0.0 0.0 0.00 0.08 0.08 99 1012.4
20260510034810 49 346 0.0 0.0 0.00 0.08 0.08 99 1012.2
20260510034308 49 347 0.0 0.0 0.00 0.08 0.08 99 1012.3
20260510033804 49 351 0.0 0.0 0.00 0.08 0.08 99 1012.1
20260510033301 50 340 0.0 0.0 0.00 0.08 0.08 99 1012.5
20260510032757 50 346 0.0 0.0 0.00 0.08 0.08 99 1012.4
20260510032254 50 6 0.0 0.9 0.00 0.08 0.08 98 1012.4
20260510031749 49 346 0.0 0.0 0.00 0.08 0.08 98 1012.3
20260510031245 50 347 0.0 0.0 0.00 0.08 0.08 98 1012.3
20260510030739 50 347 0.0 0.0 0.00 0.08 0.08 98 1012.1
20260510030237 50 342 0.0 0.0 0.00 0.08 0.08 98 1012.4
20260510025734 50 346 0.0 0.0 0.00 0.08 0.08 97 1012.3
20260510025232 50 347 0.0 0.0 0.00 0.08 0.08 97 1012.4
20260510024728 51 349 0.0 0.0 0.00 0.08 0.08 97 1012.4
20260510024225 50 350 0.0 0.0 0.00 0.08 0.08 97 1012.3
20260510023720 51 352 0.0 0.0 0.00 0.08 0.08 97 1012.2
20260510023217 51 351 0.0 0.0 0.00 0.08 0.08 97 1012.2
20260510022713 51 348 0.0 0.0 0.00 0.08 0.08 97 1012.0
20260510022203 51 352 0.0 0.0 0.00 0.08 0.08 96 1011.8
20260510021658 51 354 0.0 0.0 0.00 0.08 0.08 96 1011.7
20260510021155 52 348 0.0 0.0 0.00 0.08 0.08 96 1011.8
20260510020650 52 354 0.0 0.0 0.00 0.08 0.08 96 1011.7
20260510020145 52 350 0.0 0.0 0.00 0.08 0.08 95 1011.7
20260510015641 52 348 0.0 0.0 0.00 0.08 0.08 95 1011.9
20260510015139 52 340 0.0 0.0 0.00 0.08 0.08 94 1011.8
20260510014638 52 352 0.0 0.0 0.00 0.08 0.08 94 1011.7
20260510014136 53 350 0.0 0.0 0.00 0.08 0.08 94 1011.7
20260510013631 53 356 0.0 0.0 0.00 0.08 0.08 93 1011.7
20260510013126 53 356 0.0 0.0 0.00 0.08 0.08 93 1011.8
20260510012621 54 352 0.0 0.0 0.00 0.08 0.08 92 1011.4
20260510012117 54 348 0.0 0.0 0.00 0.08 0.08 92 1011.6
20260510011617 53 354 0.0 0.0 0.00 0.08 0.08 90 1011.6
20260510011113 54 12 0.0 0.0 0.00 0.08 0.08 89 1011.3
20260510010609 55 352 0.0 0.0 0.00 0.08 0.08 89 1011.3
20260510010107 56 352 0.0 0.0 0.00 0.08 0.08 88 1011.3
20260510005602 57 352 0.0 0.0 0.00 0.08 0.08 88 1011.0
20260510005100 57 354 0.0 0.9 0.00 0.08 0.08 88 1011.0
20260510004557 57 2 0.0 0.0 0.00 0.08 0.08 88 1011.0
20260510004050 58 12 0.0 0.9 0.00 0.08 0.08 86 1010.9
20260510003546 58 355 0.0 0.0 0.00 0.08 0.08 85 1011.1
20260510003042 58 357 0.0 0.0 0.00 0.08 0.08 85 1011.0
20260510002537 59 355 0.0 0.0 0.00 0.08 0.08 84 1010.9
20260510002034 59 358 0.0 0.0 0.00 0.08 0.08 83 1011.0
20260510001531 60 356 0.0 0.0 0.00 0.08 0.08 82 1010.9
20260510001030 61 354 0.0 0.0 0.00 0.08 0.08 80 1010.8
20260510000524 61 0 0.0 0.0 0.00 0.08 0.08 80 1010.6
20260510000022 61 356 0.0 0.0 0.00 0.08 0.08 79 1010.8
20260509235518 62 356 0.0 0.0 0.00 0.08 0.08 78 1010.6
20260509235016 62 52 0.9 0.9 0.00 0.08 0.08 78 1010.6
20260509234511 62 12 0.0 0.0 0.00 0.08 0.08 76 1010.4
20260509234010 63 352 0.0 0.9 0.00 0.08 0.08 76 1010.4
20260509233506 63 8 0.9 1.7 0.00 0.08 0.08 75 1010.4
20260509233002 64 350 0.9 1.7 0.00 0.08 0.08 73 1010.6
20260509232500 64 329 0.9 1.7 0.00 0.08 0.08 73 1010.3
20260509231956 64 354 0.0 0.9 0.00 0.08 0.08 72 1010.6
20260509231453 64 9 0.9 1.7 0.00 0.08 0.08 72 1010.4
20260509230951 64 23 0.9 1.7 0.00 0.08 0.08 71 1010.6
20260509230447 64 7 0.9 1.7 0.00 0.08 0.08 72 1010.7
20260509225943 65 18 1.7 2.6 0.00 0.08 0.08 70 1010.7
20260509225440 65 58 1.7 2.6 0.00 0.08 0.08 69 1010.6
20260509224936 65 49 0.9 1.7 0.00 0.08 0.08 68 1010.6
20260509224431 66 340 0.0 0.9 0.00 0.08 0.08 68 1010.4
20260509223929 66 323 0.9 0.9 0.00 0.08 0.08 65 1010.6
20260509223425 66 34 1.7 2.6 0.00 0.08 0.08 66 1010.8
20260509222923 66 354 0.0 1.7 0.00 0.08 0.08 66 1010.7
20260509222418 66 103 2.6 2.6 0.00 0.08 0.08 67 1010.8
20260509221914 66 36 2.6 2.6 0.00 0.08 0.08 69 1010.8
20260509221411 65 350 0.9 1.7 0.00 0.08 0.08 69 1010.8
20260509220906 65 39 4.3 5.2 0.00 0.08 0.08 69 1010.8
20260509220402 66 27 0.9 1.7 0.00 0.08 0.08 70 1010.4
20260509215858 65 30 1.7 2.6 0.00 0.08 0.08 70 1010.6
20260509215354 65 15 2.6 2.6 0.00 0.08 0.08 69 1010.4
20260509214852 66 168 1.7 4.3 0.00 0.08 0.08 70 1010.4
20260509214349 66 41 3.5 4.3 0.00 0.08 0.08 69 1010.7
20260509213846 67 356 0.0 0.9 0.00 0.08 0.08 67 1010.8
20260509213341 65 16 1.7 5.2 0.00 0.08 0.08 68 1010.8
20260509212839 67 354 4.3 5.2 0.00 0.08 0.08 67 1010.8
20260509212336 66 334 0.0 0.9 0.00 0.08 0.08 68 1010.8
20260509211832 65 342 0.0 2.6 0.00 0.08 0.08 70 1010.9
20260509211328 66 19 0.9 0.9 0.00 0.08 0.08 69 1010.9
20260509210825 65 349 0.0 0.0 0.00 0.08 0.08 66 1011.2
20260509210322 65 349 0.0 0.0 0.00 0.08 0.08 68 1011.4
20260509205822 64 350 0.0 0.0 0.00 0.08 0.08 67 1011.2
20260509205317 64 10 0.9 1.7 0.00 0.08 0.08 67 1011.0
20260509204814 64 346 0.0 0.9 0.00 0.08 0.08 68 1011.3
20260509204310 64 357 0.0 0.9 0.00 0.08 0.08 70 1011.0
20260509203806 64 354 0.0 0.0 0.00 0.08 0.08 71 1010.8
20260509203303 64 354 0.9 1.7 0.00 0.08 0.08 70 1011.2
20260509202759 64 2 0.0 0.9 0.00 0.08 0.08 69 1011.1
20260509202256 64 334 0.0 1.7 0.00 0.08 0.08 70 1011.1
20260509201750 64 46 0.9 1.7 0.00 0.08 0.08 70 1010.8
20260509201247 64 33 0.0 0.9 0.00 0.08 0.08 68 1010.8
20260509200743 64 36 0.9 1.7 0.00 0.08 0.08 68 1011.1
20260509200238 65 1 0.9 0.9 0.00 0.08 0.08 68 1011.2
20260509195735 64 356 0.0 0.9 0.00 0.08 0.08 71 1011.1
20260509195230 64 23 0.0 0.9 0.00 0.08 0.08 69 1011.2
20260509194729 64 61 1.7 1.7 0.00 0.08 0.08 68 1011.1
20260509194226 64 6 2.6 2.6 0.00 0.08 0.08 69 1011.4
20260509193723 65 5 0.0 2.6 0.00 0.08 0.08 67 1011.5
20260509193218 66 343 0.0 1.7 0.00 0.08 0.08 68 1011.3
20260509192715 65 159 1.7 2.6 0.00 0.08 0.08 67 1011.4
20260509192215 65 27 0.9 2.6 0.00 0.08 0.08 67 1011.2
20260509191710 65 352 0.0 1.7 0.00 0.08 0.08 67 1011.5
20260509191207 65 352 4.3 5.2 0.00 0.08 0.08 67 1011.4
20260509190703 63 347 0.9 1.7 0.00 0.08 0.08 70 1011.7
20260509190200 63 346 1.7 2.6 0.00 0.08 0.08 71 1011.7
20260509185658 64 38 1.7 6.1 0.00 0.08 0.08 71 1011.6
20260509185154 65 28 0.0 4.3 0.00 0.08 0.08 71 1011.3
20260509184652 65 342 0.9 2.6 0.00 0.08 0.08 73 1011.6
20260509184148 64 334 0.0 0.9 0.00 0.08 0.08 71 1011.7
20260509183645 63 356 0.9 2.6 0.00 0.08 0.08 73 1011.7
20260509183140 63 305 0.9 1.7 0.00 0.08 0.08 72 1011.8
20260509182636 63 18 1.7 1.7 0.00 0.08 0.08 72 1012.1
20260509182134 63 53 1.7 1.7 0.00 0.08 0.08 75 1012.1
20260509181632 62 335 0.9 1.7 0.00 0.08 0.08 75 1012.3
20260509181129 61 236 1.7 1.7 0.00 0.08 0.08 76 1012.4
20260509180626 62 113 2.6 2.6 0.00 0.08 0.08 75 1012.4
20260509180122 62 355 0.0 2.6 0.00 0.08 0.08 79 1012.6
20260509175617 61 144 2.6 2.6 0.00 0.08 0.08 76 1012.6
20260509175114 61 102 1.7 4.3 0.00 0.08 0.08 78 1012.7
20260509174605 62 123 4.3 6.1 0.00 0.08 0.08 75 1012.7
20260509174101 60 336 0.9 2.6 0.00 0.08 0.08 78 1012.7
20260509173556 60 235 1.7 1.7 0.00 0.08 0.08 77 1012.5
20260509173052 60 244 1.7 2.6 0.00 0.08 0.08 78 1012.7
20260509172549 59 39 0.0 0.9 0.00 0.08 0.08 80 1013.1
20260509172045 59 260 1.7 4.3 0.00 0.08 0.08 79 1013.1
20260509171541 59 339 0.0 0.9 0.00 0.08 0.08 79 1012.9
20260509171038 59 353 0.0 0.9 0.00 0.08 0.08 80 1012.6
20260509170533 59 349 0.0 2.6 0.00 0.08 0.08 80 1012.6
20260509170029 58 2 0.9 1.7 0.00 0.08 0.08 82 1012.6
20260509165528 59 354 0.9 1.7 0.00 0.08 0.08 81 1012.7
20260509165024 59 44 1.7 2.6 0.00 0.08 0.08 80 1012.8
20260509164520 58 347 0.0 0.0 0.00 0.08 0.08 79 1012.9
20260509164015 59 8 0.9 1.7 0.00 0.08 0.08 78 1012.8
20260509163513 59 335 0.9 0.9 0.00 0.08 0.08 80 1012.7
20260509163008 58 349 0.0 0.9 0.00 0.08 0.08 81 1012.8
20260509162506 58 173 0.9 1.7 0.00 0.08 0.08 81 1012.9
20260509162002 59 16 0.9 1.7 0.00 0.08 0.08 80 1013.1
20260509161459 58 315 0.9 1.7 0.00 0.08 0.08 80 1013.4
20260509160953 58 312 0.9 0.9 0.00 0.08 0.08 81 1013.3
20260509160449 59 25 0.9 2.6 0.00 0.08 0.08 83 1013.5
20260509155944 58 295 0.9 1.7 0.00 0.08 0.08 84 1013.5
20260509155442 57 310 0.9 4.3 0.00 0.08 0.08 83 1013.4
20260509154938 57 270 1.7 4.3 0.00 0.08 0.08 87 1013.3
20260509154434 56 331 1.7 4.3 0.00 0.08 0.08 89 1013.5
20260509153932 56 226 4.3 5.2 0.00 0.08 0.08 92 1013.4
20260509153428 55 82 2.6 2.6 0.00 0.08 0.08 94 1013.5
20260509152926 55 253 2.6 4.3 0.00 0.08 0.08 95 1013.6
20260509152421 55 309 1.7 1.7 0.00 0.08 0.08 96 1013.3
20260509151919 54 212 2.6 2.6 0.00 0.08 0.08 96 1013.4
20260509151414 54 55 0.9 2.6 0.00 0.08 0.08 96 1013.2
20260509150913 53 354 0.0 0.9 0.00 0.08 0.08 96 1013.1
20260509150410 53 193 2.6 2.6 0.00 0.08 0.08 96 1013.4
20260509145909 53 219 0.9 1.7 0.00 0.08 0.08 96 1013.3
20260509145408 53 322 0.9 0.9 0.00 0.08 0.08 96 1013.2
20260509144904 53 327 0.9 0.9 0.00 0.08 0.08 96 1013.2
20260509144401 53 341 0.0 0.0 0.07 0.08 0.08 95 1013.1
20260509143858 52 354 0.0 0.0 0.07 0.08 0.08 94 1013.0
20260509143355 53 17 1.7 1.7 0.05 0.07 0.07 91 1013.2
20260509142851 53 28 0.9 1.7 0.14 0.06 0.06 89 1013.0
20260509142348 53 5 0.0 0.9 0.24 0.05 0.05 88 1013.4
20260509141843 55 18 0.9 0.9 0.19 0.03 0.03 85 1013.6
20260509141341 56 357 0.0 0.9 0.07 0.01 0.01 84 1013.4
20260509140837 57 341 0.9 1.7 0.00 0.00 0.00 80 1013.6
20260509140334 57 348 0.0 0.9 0.00 0.00 0.00 75 1013.4
20260509135832 57 356 0.0 0.9 0.00 0.00 0.00 76 1013.2
20260509135330 57 352 0.0 0.0 0.00 0.00 0.00 75 1013.3
20260509134827 57 293 1.7 2.6 0.00 0.00 0.00 72 1013.5
20260509134324 57 256 1.7 4.3 0.00 0.00 0.00 73 1013.5
20260509133820 58 3 0.9 1.7 0.00 0.00 0.00 77 1013.2
20260509133317 58 275 0.9 2.6 0.00 0.00 0.00 73 1013.1
20260509132816 58 354 0.0 0.9 0.00 0.00 0.00 74 1013.0
20260509132314 58 304 1.7 1.7 0.00 0.00 0.00 72 1013.3
20260509131811 59 324 0.9 1.7 0.00 0.00 0.00 70 1012.9
20260509131308 58 337 0.0 0.9 0.00 0.00 0.00 67 1013.0
20260509130804 58 357 0.0 0.9 0.00 0.00 0.00 71 1012.8
20260509130259 57 250 2.6 2.6 0.00 0.00 0.00 73 1013.2
20260509125756 57 41 0.9 1.7 0.00 0.00 0.00 74 1012.9
20260509125253 56 230 2.6 2.6 0.00 0.00 0.00 76 1012.9
20260509124750 56 349 0.9 0.9 0.00 0.00 0.00 77 1012.9
20260509124246 55 345 0.0 0.0 0.00 0.00 0.00 77 1012.9
20260509123744 55 296 0.9 1.7 0.00 0.00 0.00 77 1013.1
20260509123241 55 353 0.0 0.9 0.00 0.00 0.00 76 1012.9
20260509122737 55 358 0.9 0.9 0.00 0.00 0.00 76 1012.9
20260509122234 55 318 0.9 1.7 0.00 0.00 0.00 76 1013.2
20260509121731 55 298 1.7 1.7 0.00 0.00 0.00 75 1013.0
20260509121228 55 350 0.0 0.0 0.00 0.00 0.00 76 1012.8
20260509120726 55 322 0.9 0.9 0.00 0.00 0.00 75 1012.9